Time,TemperatureF,DewpointF,PressureIn,WindDirection,WindDirectionDegrees,WindSpeedMPH,WindSpeedGustMPH,Humidity,HourlyPrecipIn,Conditions,Clouds,dailyrainin,SoftwareType,DateUTC
2013-02-15 00:03:00,23.2,12.5,30.09,NW,316,4.0,14.0,63,0.00,,,0.00,Wunderground v.1.15,2013-02-15 06:03:00,
2013-02-15 00:09:00,23.2,12.1,30.09,NNW,328,4.0,4.0,62,0.00,,,0.00,Wunderground v.1.15,2013-02-15 06:09:00,
2013-02-15 00:15:00,23.2,11.7,30.09,NNW,328,5.0,14.0,61,0.00,,,0.00,Wunderground v.1.15,2013-02-15 06:15:00,
2013-02-15 00:21:00,23.1,11.6,30.09,NNW,332,4.0,14.0,61,0.00,,,0.00,Wunderground v.1.15,2013-02-15 06:21:00,
2013-02-15 00:27:00,23.0,11.2,30.10,North,352,5.0,14.0,60,0.00,,,0.00,Wunderground v.1.15,2013-02-15 06:27:00,
2013-02-15 00:33:00,23.0,11.2,30.10,North,349,5.0,14.0,60,0.00,,,0.00,Wunderground v.1.15,2013-02-15 06:33:00,
2013-02-15 00:39:00,22.8,11.3,30.10,NW,314,3.0,14.0,61,0.00,,,0.00,Wunderground v.1.15,2013-02-15 06:39:00,
2013-02-15 00:45:00,22.7,11.6,30.11,NW,320,3.0,14.0,62,0.00,,,0.00,Wunderground v.1.15,2013-02-15 06:45:00,
2013-02-15 00:51:00,22.6,11.5,30.11,NW,326,3.0,4.0,62,0.00,,,0.00,Wunderground v.1.15,2013-02-15 06:51:00,
2013-02-15 00:57:00,22.6,11.5,30.11,North,356,4.0,14.0,62,0.00,,,0.00,Wunderground v.1.15,2013-02-15 06:57:00,
2013-02-15 01:03:00,22.5,11.8,30.11,NW,308,4.0,14.0,63,0.00,,,0.00,Wunderground v.1.15,2013-02-15 07:03:00,
2013-02-15 01:09:00,22.5,11.8,30.11,NW,321,4.0,4.0,63,0.00,,,0.00,Wunderground v.1.15,2013-02-15 07:09:00,
2013-02-15 01:15:00,22.5,11.8,30.11,NW,314,5.0,14.0,63,0.00,,,0.00,Wunderground v.1.15,2013-02-15 07:15:00,
2013-02-15 01:21:00,22.4,12.1,30.12,NNW,340,4.0,14.0,64,0.00,,,0.00,Wunderground v.1.15,2013-02-15 07:21:00,
2013-02-15 01:27:00,22.3,12.0,30.12,NW,318,4.0,14.0,64,0.00,,,0.00,Wunderground v.1.15,2013-02-15 07:27:00,
2013-02-15 01:33:00,22.2,11.9,30.12,WNW,295,3.0,14.0,64,0.00,,,0.00,Wunderground v.1.15,2013-02-15 07:33:00,
2013-02-15 01:39:00,22.1,12.1,30.12,NNE,15,3.0,3.0,65,0.00,,,0.00,Wunderground v.1.15,2013-02-15 07:39:00,
2013-02-15 01:45:00,21.9,11.9,30.12,NW,307,2.0,14.0,65,0.00,,,0.00,Wunderground v.1.15,2013-02-15 07:45:00,
2013-02-15 01:51:00,21.9,11.9,30.12,NNW,328,3.0,14.0,65,0.00,,,0.00,Wunderground v.1.15,2013-02-15 07:51:00,
2013-02-15 01:57:00,21.9,12.3,30.12,NNW,337,4.0,14.0,66,0.00,,,0.00,Wunderground v.1.15,2013-02-15 07:57:00,
2013-02-15 02:03:00,21.7,12.8,30.13,NNW,343,3.0,14.0,68,0.00,,,0.00,Wunderground v.1.15,2013-02-15 08:03:00,
2013-02-15 02:09:00,21.5,12.6,30.13,WNW,302,2.0,14.0,68,0.00,,,0.00,Wunderground v.1.15,2013-02-15 08:09:00,
2013-02-15 02:15:00,21.4,12.5,30.13,NW,326,3.0,14.0,68,0.00,,,0.00,Wunderground v.1.15,2013-02-15 08:15:00,
2013-02-15 02:21:00,21.3,12.7,30.13,NNW,328,3.0,14.0,69,0.00,,,0.00,Wunderground v.1.15,2013-02-15 08:21:00,
2013-02-15 02:27:00,21.2,13.6,30.14,NNW,328,4.0,14.0,72,0.00,,,0.00,Wunderground v.1.15,2013-02-15 08:27:00,
2013-02-15 02:33:00,20.9,13.6,30.14,NW,307,3.0,14.0,73,0.00,,,0.00,Wunderground v.1.15,2013-02-15 08:33:00,
2013-02-15 02:39:00,20.8,13.5,30.14,NNW,333,3.0,14.0,73,0.00,,,0.00,Wunderground v.1.15,2013-02-15 08:39:00,
2013-02-15 02:45:00,20.8,13.5,30.14,WNW,300,4.0,14.0,73,0.00,,,0.00,Wunderground v.1.15,2013-02-15 08:45:00,
2013-02-15 02:51:00,20.6,13.3,30.14,WNW,295,5.0,14.0,73,0.00,,,0.00,Wunderground v.1.15,2013-02-15 08:51:00,
2013-02-15 02:57:00,20.5,12.9,30.14,NNW,335,4.0,14.0,72,0.00,,,0.00,Wunderground v.1.15,2013-02-15 08:57:00,
2013-02-15 03:03:00,20.4,12.5,30.15,NW,314,5.0,14.0,71,0.00,,,0.00,Wunderground v.1.15,2013-02-15 09:03:00,
2013-02-15 03:09:00,20.4,12.2,30.15,NW,307,4.0,4.0,70,0.00,,,0.00,Wunderground v.1.15,2013-02-15 09:09:00,
2013-02-15 03:15:00,20.2,12.3,30.14,NNW,343,4.0,14.0,71,0.00,,,0.00,Wunderground v.1.15,2013-02-15 09:15:00,
2013-02-15 03:21:00,20.1,12.2,30.15,NW,316,3.0,14.0,71,0.00,,,0.00,Wunderground v.1.15,2013-02-15 09:21:00,
2013-02-15 03:27:00,20.0,12.1,30.15,North,1,3.0,14.0,71,0.00,,,0.00,Wunderground v.1.15,2013-02-15 09:27:00,
2013-02-15 03:33:00,19.9,12.0,30.15,NW,318,3.0,14.0,71,0.00,,,0.00,Wunderground v.1.15,2013-02-15 09:33:00,
2013-02-15 03:39:00,19.8,11.9,30.15,NW,304,2.0,14.0,71,0.00,,,0.00,Wunderground v.1.15,2013-02-15 09:39:00,
2013-02-15 03:45:00,19.8,12.2,30.15,WNW,297,3.0,14.0,72,0.00,,,0.00,Wunderground v.1.15,2013-02-15 09:45:00,
2013-02-15 03:51:00,19.7,12.1,30.15,NW,312,3.0,14.0,72,0.00,,,0.00,Wunderground v.1.15,2013-02-15 09:51:00,
2013-02-15 03:57:00,19.6,12.3,30.16,WNW,293,2.0,14.0,73,0.00,,,0.00,Wunderground v.1.15,2013-02-15 09:57:00,
2013-02-15 04:03:00,19.5,12.6,30.16,North,359,2.0,14.0,74,0.00,,,0.00,Wunderground v.1.15,2013-02-15 10:03:00,
2013-02-15 04:09:00,19.3,12.7,30.16,NW,311,2.0,14.0,75,0.00,,,0.00,Wunderground v.1.15,2013-02-15 10:09:00,
2013-02-15 04:15:00,19.2,12.3,30.16,NW,314,2.0,14.0,74,0.00,,,0.00,Wunderground v.1.15,2013-02-15 10:15:00,
2013-02-15 04:21:00,19.1,12.2,30.16,NW,314,2.0,14.0,74,0.00,,,0.00,Wunderground v.1.15,2013-02-15 10:21:00,
2013-02-15 04:27:00,19.1,12.2,30.16,NW,326,3.0,14.0,74,0.00,,,0.00,Wunderground v.1.15,2013-02-15 10:27:00,
2013-02-15 04:33:00,19.0,12.1,30.16,NW,315,2.0,14.0,74,0.00,,,0.00,Wunderground v.1.15,2013-02-15 10:33:00,
2013-02-15 04:39:00,18.9,12.0,30.16,WNW,284,2.0,14.0,74,0.00,,,0.00,Wunderground v.1.15,2013-02-15 10:39:00,
2013-02-15 04:45:00,18.8,11.9,30.17,NW,326,2.0,14.0,74,0.00,,,0.00,Wunderground v.1.15,2013-02-15 10:45:00,
2013-02-15 04:51:00,18.8,11.9,30.17,NW,321,2.0,14.0,74,0.00,,,0.00,Wunderground v.1.15,2013-02-15 10:51:00,
2013-02-15 04:57:00,18.7,11.8,30.17,NW,314,2.0,14.0,74,0.00,,,0.00,Wunderground v.1.15,2013-02-15 10:57:00,
2013-02-15 05:03:00,18.6,11.7,30.17,NW,308,2.0,14.0,74,0.00,,,0.00,Wunderground v.1.15,2013-02-15 11:03:00,
2013-02-15 05:09:00,18.6,12.0,30.18,NNW,338,2.0,2.0,75,0.00,,,0.00,Wunderground v.1.15,2013-02-15 11:09:00,
2013-02-15 05:15:00,18.5,11.9,30.18,NW,314,2.0,14.0,75,0.00,,,0.00,Wunderground v.1.15,2013-02-15 11:15:00,
2013-02-15 05:21:00,18.4,11.8,30.18,NW,318,3.0,14.0,75,0.00,,,0.00,Wunderground v.1.15,2013-02-15 11:21:00,
2013-02-15 05:27:00,18.4,11.8,30.18,WNW,289,3.0,14.0,75,0.00,,,0.00,Wunderground v.1.15,2013-02-15 11:27:00,
2013-02-15 05:33:00,18.2,11.6,30.18,NW,314,2.0,14.0,75,0.00,,,0.00,Wunderground v.1.15,2013-02-15 11:33:00,
2013-02-15 05:39:00,18.1,11.8,30.18,NW,311,2.0,14.0,76,0.00,,,0.00,Wunderground v.1.15,2013-02-15 11:39:00,
2013-02-15 05:45:00,17.9,11.6,30.18,NW,309,1.0,14.0,76,0.00,,,0.00,Wunderground v.1.15,2013-02-15 11:45:00,
2013-02-15 05:51:00,17.8,11.8,30.18,NW,313,1.0,14.0,77,0.00,,,0.00,Wunderground v.1.15,2013-02-15 11:51:00,
2013-02-15 05:57:00,17.6,11.9,30.18,NW,311,1.0,14.0,78,0.00,,,0.00,Wunderground v.1.15,2013-02-15 11:57:00,
2013-02-15 06:03:00,17.4,12.0,30.18,WNW,298,1.0,14.0,79,0.00,,,0.00,Wunderground v.1.15,2013-02-15 12:03:00,
2013-02-15 06:09:00,17.3,11.9,30.19,WNW,293,1.0,14.0,79,0.00,,,0.00,Wunderground v.1.15,2013-02-15 12:09:00,
2013-02-15 06:15:00,17.1,11.7,30.19,WNW,283,1.0,14.0,79,0.00,,,0.00,Wunderground v.1.15,2013-02-15 12:15:00,
2013-02-15 06:21:00,17.1,11.7,30.19,NW,316,1.0,14.0,79,0.00,,,0.00,Wunderground v.1.15,2013-02-15 12:21:00,
2013-02-15 06:27:00,17.1,12.0,30.19,WNW,297,2.0,14.0,80,0.00,,,0.00,Wunderground v.1.15,2013-02-15 12:27:00,
2013-02-15 06:33:00,16.9,11.8,30.19,WNW,290,2.0,14.0,80,0.00,,,0.00,Wunderground v.1.15,2013-02-15 12:33:00,
2013-02-15 06:39:00,16.8,12.0,30.19,NW,311,1.0,14.0,81,0.00,,,0.00,Wunderground v.1.15,2013-02-15 12:39:00,
2013-02-15 06:45:00,16.7,11.9,30.19,NW,308,2.0,14.0,81,0.00,,,0.00,Wunderground v.1.15,2013-02-15 12:45:00,
2013-02-15 06:51:00,16.6,12.1,30.19,NW,318,2.0,14.0,82,0.00,,,0.00,Wunderground v.1.15,2013-02-15 12:51:00,
2013-02-15 06:57:00,16.5,12.0,30.19,NW,309,2.0,14.0,82,0.00,,,0.00,Wunderground v.1.15,2013-02-15 12:57:00,
2013-02-15 07:03:00,16.4,11.9,30.19,NW,309,2.0,14.0,82,0.00,,,0.00,Wunderground v.1.15,2013-02-15 13:03:00,
2013-02-15 07:09:00,16.4,11.9,30.19,NW,311,2.0,14.0,82,0.00,,,0.00,Wunderground v.1.15,2013-02-15 13:09:00,
2013-02-15 07:15:00,16.3,11.5,30.20,WNW,295,2.0,14.0,81,0.00,,,0.00,Wunderground v.1.15,2013-02-15 13:15:00,
2013-02-15 07:21:00,16.2,11.4,30.20,WNW,290,2.0,14.0,81,0.00,,,0.00,Wunderground v.1.15,2013-02-15 13:21:00,
2013-02-15 07:27:00,16.3,10.9,30.20,NW,305,3.0,14.0,79,0.00,,,0.00,Wunderground v.1.15,2013-02-15 13:27:00,
2013-02-15 07:33:00,16.3,10.4,30.20,NNW,339,3.0,14.0,77,0.00,,,0.00,Wunderground v.1.15,2013-02-15 13:33:00,
2013-02-15 07:39:00,16.3,9.5,30.21,WSW,256,3.0,14.0,74,0.00,,,0.00,Wunderground v.1.15,2013-02-15 13:39:00,
2013-02-15 07:45:00,16.4,9.3,30.21,WNW,302,3.0,14.0,73,0.00,,,0.00,Wunderground v.1.15,2013-02-15 13:45:00,
2013-02-15 07:51:00,16.5,9.4,30.21,WSW,248,3.0,14.0,73,0.00,,,0.00,Wunderground v.1.15,2013-02-15 13:51:00,
2013-02-15 07:57:00,16.6,9.4,30.21,NW,314,4.0,14.0,73,0.00,,,0.00,Wunderground v.1.15,2013-02-15 13:57:00,
2013-02-15 08:03:00,16.6,8.8,30.22,NNW,332,4.0,14.0,71,0.00,,,0.00,Wunderground v.1.15,2013-02-15 14:03:00,
2013-02-15 08:09:00,16.6,8.2,30.22,NW,326,5.0,5.0,69,0.00,,,0.00,Wunderground v.1.15,2013-02-15 14:09:00,
2013-02-15 08:15:00,16.7,8.3,30.22,NW,316,5.0,14.0,69,0.00,,,0.00,Wunderground v.1.15,2013-02-15 14:15:00,
2013-02-15 08:21:00,16.8,9.0,30.22,WNW,293,4.0,14.0,71,0.00,,,0.00,Wunderground v.1.15,2013-02-15 14:21:00,
2013-02-15 08:27:00,16.8,9.0,30.23,NW,315,4.0,14.0,71,0.00,,,0.00,Wunderground v.1.15,2013-02-15 14:27:00,
2013-02-15 08:33:00,17.0,8.9,30.22,WNW,298,4.0,14.0,70,0.00,,,0.00,Wunderground v.1.15,2013-02-15 14:33:00,
2013-02-15 08:39:00,16.9,8.8,30.22,NW,318,4.0,14.0,70,0.00,,,0.00,Wunderground v.1.15,2013-02-15 14:39:00,
2013-02-15 08:45:00,17.1,9.0,30.23,WNW,297,4.0,14.0,70,0.00,,,0.00,Wunderground v.1.15,2013-02-15 14:45:00,
2013-02-15 08:51:00,17.4,9.3,30.23,NW,304,3.0,14.0,70,0.00,,,0.00,Wunderground v.1.15,2013-02-15 14:51:00,
2013-02-15 08:57:00,17.4,9.3,30.23,WNW,282,4.0,14.0,70,0.00,,,0.00,Wunderground v.1.15,2013-02-15 14:57:00,
2013-02-15 09:03:00,17.5,9.1,30.23,NW,326,4.0,14.0,69,0.00,,,0.00,Wunderground v.1.15,2013-02-15 15:03:00,
2013-02-15 09:09:00,17.6,8.8,30.23,WNW,296,5.0,14.0,68,0.00,,,0.00,Wunderground v.1.15,2013-02-15 15:09:00,
2013-02-15 09:15:00,17.7,9.2,30.23,WNW,289,4.0,14.0,69,0.00,,,0.00,Wunderground v.1.15,2013-02-15 15:15:00,
2013-02-15 09:21:00,17.9,9.4,30.23,NW,316,4.0,14.0,69,0.00,,,0.00,Wunderground v.1.15,2013-02-15 15:21:00,
2013-02-15 09:27:00,17.9,9.4,30.23,NW,314,4.0,14.0,69,0.00,,,0.00,Wunderground v.1.15,2013-02-15 15:27:00,
2013-02-15 09:33:00,17.8,9.0,30.23,NW,316,4.0,14.0,68,0.00,,,0.00,Wunderground v.1.15,2013-02-15 15:33:00,
2013-02-15 09:39:00,18.0,9.5,30.23,NW,318,4.0,14.0,69,0.00,,,0.00,Wunderground v.1.15,2013-02-15 15:39:00,
2013-02-15 09:45:00,18.3,10.1,30.23,WSW,248,3.0,14.0,70,0.00,,,0.00,Wunderground v.1.15,2013-02-15 15:45:00,
2013-02-15 09:51:00,18.7,10.2,30.23,West,270,3.0,5.0,69,0.00,,,0.00,Wunderground v.1.15,2013-02-15 15:51:00,
2013-02-15 09:57:00,18.8,10.3,30.23,NW,311,5.0,14.0,69,0.00,,,0.00,Wunderground v.1.15,2013-02-15 15:57:00,
2013-02-15 10:03:00,19.0,11.1,30.24,NW,311,5.0,14.0,71,0.00,,,0.00,Wunderground v.1.15,2013-02-15 16:03:00,
2013-02-15 10:09:00,19.2,11.3,30.23,NW,314,4.0,14.0,71,0.00,,,0.00,Wunderground v.1.15,2013-02-15 16:09:00,
2013-02-15 10:15:00,19.4,11.8,30.23,NW,314,4.0,14.0,72,0.00,,,0.00,Wunderground v.1.15,2013-02-15 16:15:00,
2013-02-15 10:21:00,19.6,12.3,30.24,WNW,287,4.0,10.0,73,0.00,,,0.00,Wunderground v.1.15,2013-02-15 16:21:00,
2013-02-15 10:27:00,19.6,12.0,30.24,NW,304,4.0,14.0,72,0.00,,,0.00,Wunderground v.1.15,2013-02-15 16:27:00,
2013-02-15 10:33:00,19.7,12.4,30.24,WNW,293,4.0,14.0,73,0.00,,,0.00,Wunderground v.1.15,2013-02-15 16:33:00,
2013-02-15 10:39:00,19.8,12.2,30.24,WNW,297,5.0,14.0,72,0.00,,,0.00,Wunderground v.1.15,2013-02-15 16:39:00,
2013-02-15 10:45:00,20.2,12.6,30.24,NW,323,4.0,14.0,72,0.00,,,0.00,Wunderground v.1.15,2013-02-15 16:45:00,
2013-02-15 10:51:00,20.2,12.9,30.24,NW,325,4.0,14.0,73,0.00,,,0.00,Wunderground v.1.15,2013-02-15 16:51:00,
2013-02-15 10:57:00,20.6,13.3,30.24,NW,309,4.0,14.0,73,0.00,,,0.00,Wunderground v.1.15,2013-02-15 16:57:00,
2013-02-15 11:03:00,20.6,13.3,30.24,NW,325,4.0,14.0,73,0.00,,,0.00,Wunderground v.1.15,2013-02-15 17:03:00,
2013-02-15 11:09:00,20.8,13.5,30.24,WNW,285,5.0,14.0,73,0.00,,,0.00,Wunderground v.1.15,2013-02-15 17:09:00,
2013-02-15 11:15:00,21.2,13.9,30.24,NW,325,5.0,14.0,73,0.00,,,0.00,Wunderground v.1.15,2013-02-15 17:15:00,
2013-02-15 11:21:00,21.6,14.0,30.24,NW,305,4.0,14.0,72,0.00,,,0.00,Wunderground v.1.15,2013-02-15 17:21:00,
2013-02-15 11:27:00,21.7,14.1,30.24,NW,311,4.0,14.0,72,0.00,,,0.00,Wunderground v.1.15,2013-02-15 17:27:00,
2013-02-15 11:33:00,21.6,14.0,30.24,West,281,5.0,14.0,72,0.00,,,0.00,Wunderground v.1.15,2013-02-15 17:33:00,
2013-02-15 11:39:00,22.0,14.3,30.24,WNW,284,5.0,14.0,72,0.00,,,0.00,Wunderground v.1.15,2013-02-15 17:39:00,
2013-02-15 11:45:00,21.8,14.2,30.24,NNE,18,5.0,14.0,72,0.00,,,0.00,Wunderground v.1.15,2013-02-15 17:45:00,
2013-02-15 12:07:00,21.7,13.7,30.23,NW,316,5.0,14.0,71,0.00,,,0.00,Wunderground v.1.15,2013-02-15 18:07:00,
2013-02-15 12:13:00,21.8,14.5,30.23,NW,314,5.0,14.0,73,0.00,,,0.00,Wunderground v.1.15,2013-02-15 18:13:00,
2013-02-15 12:19:00,22.2,14.2,30.23,NW,312,5.0,5.0,71,0.00,,,0.00,Wunderground v.1.15,2013-02-15 18:19:00,
2013-02-15 12:25:00,22.6,14.3,30.23,NNW,327,5.0,14.0,70,0.00,,,0.00,Wunderground v.1.15,2013-02-15 18:25:00,
2013-02-15 12:31:00,23.1,14.4,30.23,NW,308,4.0,14.0,69,0.00,,,0.00,Wunderground v.1.15,2013-02-15 18:31:00,
2013-02-15 12:37:00,23.1,13.8,30.23,NW,313,5.0,14.0,67,0.00,,,0.00,Wunderground v.1.15,2013-02-15 18:37:00,
2013-02-15 12:43:00,23.5,14.8,30.23,NW,304,5.0,14.0,69,0.00,,,0.00,Wunderground v.1.15,2013-02-15 18:43:00,
2013-02-15 12:49:00,23.8,14.8,30.22,NW,320,4.0,14.0,68,0.00,,,0.00,Wunderground v.1.15,2013-02-15 18:49:00,
2013-02-15 12:55:00,24.2,14.5,30.22,NW,312,4.0,14.0,66,0.00,,,0.00,Wunderground v.1.15,2013-02-15 18:55:00,
2013-02-15 13:01:00,24.0,13.9,30.22,NW,314,4.0,14.0,65,0.00,,,0.00,Wunderground v.1.15,2013-02-15 19:01:00,
2013-02-15 13:07:00,24.1,14.0,30.22,NW,311,5.0,14.0,65,0.00,,,0.00,Wunderground v.1.15,2013-02-15 19:07:00,
2013-02-15 13:13:00,24.2,14.5,30.22,NW,307,4.0,14.0,66,0.00,,,0.00,Wunderground v.1.15,2013-02-15 19:13:00,
2013-02-15 13:19:00,24.1,13.3,30.22,NW,314,5.0,5.0,63,0.00,,,0.00,Wunderground v.1.15,2013-02-15 19:19:00,
2013-02-15 13:25:00,24.6,13.1,30.22,NW,323,5.0,14.0,61,0.00,,,0.00,Wunderground v.1.15,2013-02-15 19:25:00,
2013-02-15 13:31:00,24.4,12.9,30.22,NW,321,5.0,14.0,61,0.00,,,0.00,Wunderground v.1.15,2013-02-15 19:31:00,
2013-02-15 13:37:00,24.5,12.2,30.22,NE,37,4.0,14.0,59,0.00,,,0.00,Wunderground v.1.15,2013-02-15 19:37:00,
2013-02-15 13:43:00,24.6,12.3,30.22,NW,311,4.0,14.0,59,0.00,,,0.00,Wunderground v.1.15,2013-02-15 19:43:00,
2013-02-15 13:49:00,24.4,10.9,30.22,NW,314,5.0,14.0,56,0.00,,,0.00,Wunderground v.1.15,2013-02-15 19:49:00,
2013-02-15 13:55:00,24.4,12.9,30.22,NNE,30,5.0,14.0,61,0.00,,,0.00,Wunderground v.1.15,2013-02-15 19:55:00,
2013-02-15 14:01:00,24.8,13.2,30.22,NNE,12,5.0,14.0,61,0.00,,,0.00,Wunderground v.1.15,2013-02-15 20:01:00,
2013-02-15 14:07:00,24.8,12.5,30.22,NW,326,5.0,14.0,59,0.00,,,0.00,Wunderground v.1.15,2013-02-15 20:07:00,
2013-02-15 14:13:00,24.7,12.8,30.22,NW,323,5.0,14.0,60,0.00,,,0.00,Wunderground v.1.15,2013-02-15 20:13:00,
2013-02-15 14:19:00,24.6,11.9,30.22,NNW,340,6.0,6.0,58,0.00,,,0.00,Wunderground v.1.15,2013-02-15 20:19:00,
2013-02-15 14:25:00,25.1,13.9,30.22,NNW,329,4.0,14.0,62,0.00,,,0.00,Wunderground v.1.15,2013-02-15 20:25:00,
2013-02-15 14:31:00,24.7,12.4,30.22,NW,314,5.0,14.0,59,0.00,,,0.00,Wunderground v.1.15,2013-02-15 20:31:00,
2013-02-15 14:37:00,24.8,13.2,30.22,NNW,329,5.0,14.0,61,0.00,,,0.00,Wunderground v.1.15,2013-02-15 20:37:00,
2013-02-15 14:43:00,25.2,12.5,30.21,NW,318,5.0,14.0,58,0.00,,,0.00,Wunderground v.1.15,2013-02-15 20:43:00,
2013-02-15 14:49:00,25.0,12.3,30.22,NNE,16,5.0,5.0,58,0.00,,,0.00,Wunderground v.1.15,2013-02-15 20:49:00,
2013-02-15 14:55:00,24.8,12.1,30.22,WSW,247,5.0,14.0,58,0.00,,,0.00,Wunderground v.1.15,2013-02-15 20:55:00,
2013-02-15 15:01:00,25.1,12.0,30.22,NW,318,5.0,8.0,57,0.00,,,0.00,Wunderground v.1.15,2013-02-15 21:01:00,
2013-02-15 15:07:00,25.1,12.0,30.22,NE,44,6.0,14.0,57,0.00,,,0.00,Wunderground v.1.15,2013-02-15 21:07:00,
2013-02-15 15:13:00,24.7,11.6,30.22,NW,307,4.0,14.0,57,0.00,,,0.00,Wunderground v.1.15,2013-02-15 21:13:00,
2013-02-15 15:19:00,24.8,12.5,30.22,WNW,298,4.0,4.0,59,0.00,,,0.00,Wunderground v.1.15,2013-02-15 21:19:00,
2013-02-15 15:25:00,24.5,12.2,30.22,WSW,245,3.0,14.0,59,0.00,,,0.00,Wunderground v.1.15,2013-02-15 21:25:00,
2013-02-15 15:31:00,24.1,11.8,30.23,North,351,4.0,14.0,59,0.00,,,0.00,Wunderground v.1.15,2013-02-15 21:31:00,
2013-02-15 15:37:00,24.0,11.7,30.23,NW,314,5.0,14.0,59,0.00,,,0.00,Wunderground v.1.15,2013-02-15 21:37:00,
2013-02-15 15:43:00,24.2,12.3,30.23,NW,311,4.0,14.0,60,0.00,,,0.00,Wunderground v.1.15,2013-02-15 21:43:00,
2013-02-15 15:49:00,24.5,13.0,30.23,NE,41,5.0,5.0,61,0.00,,,0.00,Wunderground v.1.15,2013-02-15 21:49:00,
2013-02-15 15:55:00,25.0,13.4,30.23,WNW,301,4.0,14.0,61,0.00,,,0.00,Wunderground v.1.15,2013-02-15 21:55:00,
2013-02-15 16:01:00,25.3,13.3,30.23,WNW,294,4.0,14.0,60,0.00,,,0.00,Wunderground v.1.15,2013-02-15 22:01:00,
2013-02-15 16:07:00,25.0,12.7,30.23,North,358,4.0,14.0,59,0.00,,,0.00,Wunderground v.1.15,2013-02-15 22:07:00,
2013-02-15 16:13:00,25.1,12.4,30.23,West,277,5.0,14.0,58,0.00,,,0.00,Wunderground v.1.15,2013-02-15 22:13:00,
2013-02-15 16:19:00,25.2,12.9,30.23,WNW,290,3.0,14.0,59,0.00,,,0.00,Wunderground v.1.15,2013-02-15 22:19:00,
2013-02-15 16:25:00,25.1,12.8,30.23,NW,309,4.0,14.0,59,0.00,,,0.00,Wunderground v.1.15,2013-02-15 22:25:00,
2013-02-15 16:31:00,24.7,11.6,30.23,NW,315,5.0,14.0,57,0.00,,,0.00,Wunderground v.1.15,2013-02-15 22:31:00,
2013-02-15 16:37:00,24.6,11.5,30.23,NW,309,6.0,14.0,57,0.00,,,0.00,Wunderground v.1.15,2013-02-15 22:37:00,
2013-02-15 16:43:00,24.7,12.4,30.23,NNW,334,5.0,14.0,59,0.00,,,0.00,Wunderground v.1.15,2013-02-15 22:43:00,
2013-02-15 16:49:00,24.5,12.2,30.24,NW,307,5.0,14.0,59,0.00,,,0.00,Wunderground v.1.15,2013-02-15 22:49:00,
2013-02-15 16:55:00,24.4,11.7,30.24,NW,326,4.0,14.0,58,0.00,,,0.00,Wunderground v.1.15,2013-02-15 22:55:00,
2013-02-15 17:01:00,23.8,11.2,30.23,NW,315,5.0,14.0,58,0.00,,,0.00,Wunderground v.1.15,2013-02-15 23:01:00,
2013-02-15 17:07:00,23.3,10.7,30.24,WNW,290,5.0,14.0,58,0.00,,,0.00,Wunderground v.1.15,2013-02-15 23:07:00,
2013-02-15 17:13:00,23.1,10.9,30.24,NW,318,5.0,14.0,59,0.00,,,0.00,Wunderground v.1.15,2013-02-15 23:13:00,
2013-02-15 17:19:00,23.0,11.5,30.24,West,260,4.0,4.0,61,0.00,,,0.00,Wunderground v.1.15,2013-02-15 23:19:00,
2013-02-15 17:25:00,22.8,11.7,30.24,NW,318,4.0,14.0,62,0.00,,,0.00,Wunderground v.1.15,2013-02-15 23:25:00,
2013-02-15 17:31:00,22.7,11.6,30.24,NNW,328,4.0,14.0,62,0.00,,,0.00,Wunderground v.1.15,2013-02-15 23:31:00,
2013-02-15 17:37:00,22.5,12.1,30.24,NNW,347,4.0,14.0,64,0.00,,,0.00,Wunderground v.1.15,2013-02-15 23:37:00,
2013-02-15 17:43:00,22.3,11.6,30.24,NW,309,3.0,14.0,63,0.00,,,0.00,Wunderground v.1.15,2013-02-15 23:43:00,
2013-02-15 17:49:00,22.0,11.3,30.24,NW,304,3.0,14.0,63,0.00,,,0.00,Wunderground v.1.15,2013-02-15 23:49:00,
2013-02-15 17:55:00,21.9,11.2,30.24,NW,315,4.0,14.0,63,0.00,,,0.00,Wunderground v.1.15,2013-02-15 23:55:00,
2013-02-15 18:01:00,21.7,11.0,30.24,NNW,328,5.0,5.0,63,0.00,,,0.00,Wunderground v.1.15,2013-02-16 00:01:00,
2013-02-15 18:07:00,21.5,11.2,30.24,WSW,239,3.0,14.0,64,0.00,,,0.00,Wunderground v.1.15,2013-02-16 00:07:00,
2013-02-15 18:13:00,21.4,11.1,30.25,NNW,336,3.0,5.0,64,0.00,,,0.00,Wunderground v.1.15,2013-02-16 00:13:00,
2013-02-15 18:19:00,21.2,10.9,30.25,WNW,302,4.0,4.0,64,0.00,,,0.00,Wunderground v.1.15,2013-02-16 00:19:00,
2013-02-15 18:25:00,21.0,10.0,30.24,NNW,332,4.0,14.0,62,0.00,,,0.00,Wunderground v.1.15,2013-02-16 00:25:00,
2013-02-15 18:31:00,20.8,9.5,30.25,NW,321,4.0,14.0,61,0.00,,,0.00,Wunderground v.1.15,2013-02-16 00:31:00,
2013-02-15 18:37:00,20.6,9.3,30.25,NW,307,3.0,14.0,61,0.00,,,0.00,Wunderground v.1.15,2013-02-16 00:37:00,
2013-02-15 18:43:00,20.4,9.4,30.25,North,356,3.0,14.0,62,0.00,,,0.00,Wunderground v.1.15,2013-02-16 00:43:00,
2013-02-15 18:49:00,20.3,9.7,30.25,WNW,302,3.0,14.0,63,0.00,,,0.00,Wunderground v.1.15,2013-02-16 00:49:00,
2013-02-15 18:55:00,20.2,10.0,30.25,NNW,330,3.0,14.0,64,0.00,,,0.00,Wunderground v.1.15,2013-02-16 00:55:00,
2013-02-15 19:01:00,20.0,10.1,30.25,NW,322,2.0,3.0,65,0.00,,,0.00,Wunderground v.1.15,2013-02-16 01:01:00,
2013-02-15 19:07:00,20.0,9.8,30.25,West,271,2.0,14.0,64,0.00,,,0.00,Wunderground v.1.15,2013-02-16 01:07:00,
2013-02-15 19:13:00,19.9,9.7,30.25,WNW,300,3.0,14.0,64,0.00,,,0.00,Wunderground v.1.15,2013-02-16 01:13:00,
2013-02-15 19:19:00,19.9,9.7,30.25,NW,311,4.0,4.0,64,0.00,,,0.00,Wunderground v.1.15,2013-02-16 01:19:00,
2013-02-15 19:25:00,19.8,9.9,30.25,NNW,332,4.0,14.0,65,0.00,,,0.00,Wunderground v.1.15,2013-02-16 01:25:00,
2013-02-15 19:31:00,19.6,9.7,30.25,North,6,3.0,14.0,65,0.00,,,0.00,Wunderground v.1.15,2013-02-16 01:31:00,
2013-02-15 19:37:00,19.5,9.6,30.25,NW,309,4.0,14.0,65,0.00,,,0.00,Wunderground v.1.15,2013-02-16 01:37:00,
2013-02-15 19:43:00,19.3,9.8,30.25,NW,307,3.0,14.0,66,0.00,,,0.00,Wunderground v.1.15,2013-02-16 01:43:00,
2013-02-15 19:49:00,19.2,9.7,30.25,NW,321,2.0,2.0,66,0.00,,,0.00,Wunderground v.1.15,2013-02-16 01:49:00,
2013-02-15 19:55:00,19.0,9.5,30.25,NW,322,3.0,14.0,66,0.00,,,0.00,Wunderground v.1.15,2013-02-16 01:55:00,
2013-02-15 20:01:00,18.8,9.3,30.25,NW,311,3.0,4.0,66,0.00,,,0.00,Wunderground v.1.15,2013-02-16 02:01:00,
2013-02-15 20:07:00,18.7,9.2,30.25,NW,307,4.0,14.0,66,0.00,,,0.00,Wunderground v.1.15,2013-02-16 02:07:00,
2013-02-15 20:14:00,18.6,9.1,30.25,WNW,293,4.0,14.0,66,0.00,,,0.00,Wunderground v.1.15,2013-02-16 02:14:00,
2013-02-15 20:19:00,18.5,8.7,30.25,NW,309,3.0,3.0,65,0.00,,,0.00,Wunderground v.1.15,2013-02-16 02:19:00,
2013-02-15 20:25:00,18.4,8.6,30.25,SW,219,3.0,14.0,65,0.00,,,0.00,Wunderground v.1.15,2013-02-16 02:25:00,
2013-02-15 20:31:00,18.3,8.1,30.25,NW,311,3.0,4.0,64,0.00,,,0.00,Wunderground v.1.15,2013-02-16 02:31:00,
2013-02-15 20:37:00,18.2,8.4,30.25,NW,315,3.0,14.0,65,0.00,,,0.00,Wunderground v.1.15,2013-02-16 02:37:00,
2013-02-15 20:43:00,18.0,8.2,30.25,NNW,328,3.0,14.0,65,0.00,,,0.00,Wunderground v.1.15,2013-02-16 02:43:00,
2013-02-15 20:49:00,17.9,8.1,30.25,NNW,328,3.0,14.0,65,0.00,,,0.00,Wunderground v.1.15,2013-02-16 02:49:00,
2013-02-15 20:55:00,17.9,8.5,30.26,NW,318,4.0,14.0,66,0.00,,,0.00,Wunderground v.1.15,2013-02-16 02:55:00,
2013-02-15 21:01:00,17.7,8.3,30.26,NW,316,3.0,5.0,66,0.00,,,0.00,Wunderground v.1.15,2013-02-16 03:01:00,
2013-02-15 21:07:00,17.6,8.2,30.26,NW,309,3.0,14.0,66,0.00,,,0.00,Wunderground v.1.15,2013-02-16 03:07:00,
2013-02-15 21:13:00,17.4,8.3,30.26,NNW,342,3.0,14.0,67,0.00,,,0.00,Wunderground v.1.15,2013-02-16 03:13:00,
2013-02-15 21:19:00,17.4,8.3,30.26,NW,326,3.0,14.0,67,0.00,,,0.00,Wunderground v.1.15,2013-02-16 03:19:00,
2013-02-15 21:25:00,17.3,8.2,30.26,NW,309,3.0,14.0,67,0.00,,,0.00,Wunderground v.1.15,2013-02-16 03:25:00,
2013-02-15 21:31:00,17.2,8.4,30.26,West,266,3.0,14.0,68,0.00,,,0.00,Wunderground v.1.15,2013-02-16 03:31:00,
2013-02-15 21:37:00,17.1,8.3,30.26,WSW,256,2.0,14.0,68,0.00,,,0.00,Wunderground v.1.15,2013-02-16 03:37:00,
2013-02-15 21:43:00,17.0,8.3,30.26,WNW,287,2.0,14.0,68,0.00,,,0.00,Wunderground v.1.15,2013-02-16 03:43:00,
2013-02-15 21:49:00,16.9,8.2,30.26,WNW,291,3.0,14.0,68,0.00,,,0.00,Wunderground v.1.15,2013-02-16 03:49:00,
2013-02-15 21:55:00,16.9,8.2,30.26,NW,316,4.0,14.0,68,0.00,,,0.00,Wunderground v.1.15,2013-02-16 03:55:00,
2013-02-15 22:01:00,16.8,8.1,30.26,NNW,328,4.0,14.0,68,0.00,,,0.00,Wunderground v.1.15,2013-02-16 04:01:00,
2013-02-15 22:07:00,16.7,8.0,30.26,WNW,301,3.0,14.0,68,0.00,,,0.00,Wunderground v.1.15,2013-02-16 04:07:00,
2013-02-15 22:13:00,16.6,7.9,30.26,NW,326,3.0,14.0,68,0.00,,,0.00,Wunderground v.1.15,2013-02-16 04:13:00,
2013-02-15 22:19:00,16.6,7.5,30.25,WNW,298,3.0,14.0,67,0.00,,,0.00,Wunderground v.1.15,2013-02-16 04:19:00,
2013-02-15 22:25:00,16.6,7.2,30.25,NNW,328,3.0,14.0,66,0.00,,,0.00,Wunderground v.1.15,2013-02-16 04:25:00,
2013-02-15 22:31:00,16.5,7.1,30.25,NW,321,3.0,14.0,66,0.00,,,0.00,Wunderground v.1.15,2013-02-16 04:31:00,
2013-02-15 22:37:00,16.4,7.0,30.25,NW,318,3.0,14.0,66,0.00,,,0.00,Wunderground v.1.15,2013-02-16 04:37:00,
2013-02-15 22:43:00,16.3,7.3,30.25,NW,323,3.0,14.0,67,0.00,,,0.00,Wunderground v.1.15,2013-02-16 04:43:00,
2013-02-15 22:49:00,16.3,7.6,30.25,NW,304,3.0,3.0,68,0.00,,,0.00,Wunderground v.1.15,2013-02-16 04:49:00,
2013-02-15 22:55:00,16.2,7.8,30.26,NW,314,2.0,14.0,69,0.00,,,0.00,Wunderground v.1.15,2013-02-16 04:55:00,
2013-02-15 23:01:00,16.1,8.3,30.26,NW,316,3.0,14.0,71,0.00,,,0.00,Wunderground v.1.15,2013-02-16 05:01:00,
2013-02-15 23:07:00,16.0,8.6,30.26,NW,309,3.0,14.0,72,0.00,,,0.00,Wunderground v.1.15,2013-02-16 05:07:00,
2013-02-15 23:09:00,16.0,8.6,30.26,NW,316,3.0,14.0,72,0.00,,,0.00,Wunderground v.1.15,2013-02-16 05:09:00,
2013-02-15 23:11:00,15.9,8.5,30.26,NW,319,3.0,14.0,72,0.00,,,0.00,Wunderground v.1.15,2013-02-16 05:11:00,
2013-02-15 23:17:00,15.8,8.7,30.26,NW,317,2.0,14.0,73,0.00,,,0.00,Wunderground v.1.15,2013-02-16 05:17:00,
2013-02-15 23:23:00,15.7,8.9,30.25,NNW,338,3.0,14.0,74,0.00,,,0.00,Wunderground v.1.15,2013-02-16 05:23:00,
2013-02-15 23:29:00,15.6,8.8,30.26,NW,314,2.0,14.0,74,0.00,,,0.00,Wunderground v.1.15,2013-02-16 05:29:00,
2013-02-15 23:35:00,15.5,9.0,30.26,NW,319,2.0,14.0,75,0.00,,,0.00,Wunderground v.1.15,2013-02-16 05:35:00,
2013-02-15 23:41:00,15.4,8.9,30.26,WNW,298,2.0,14.0,75,0.00,,,0.00,Wunderground v.1.15,2013-02-16 05:41:00,
2013-02-15 23:47:00,15.3,9.1,30.25,NW,315,2.0,14.0,76,0.00,,,0.00,Wunderground v.1.15,2013-02-16 05:47:00,
2013-02-15 23:53:00,15.2,9.0,30.25,NW,310,2.0,14.0,76,0.00,,,0.00,Wunderground v.1.15,2013-02-16 05:53:00,